Location: Ceske Budejovice
(48.9830°N, 14.4670°E)
Time: 12:27:23
(UTC+01:00)

ISS - Pass Details

Date: 27 November 2019
Orbit: 411 x 421 km, 51.6° (Epoch: 08 December)

Event Time Altitude Azimuth Distance (km) Brightness Sun altitude
Rises 17:36:28 0° 243° (WSW) 2,348 1.8 -13.7°
Reaches altitude 10° 17:38:33 10° 241° (WSW) 1,490 0.4 -14.0°
Maximum altitude 17:41:54 74° 156° (SSE) 438 -3.8 -14.6°
Enters shadow 17:43:18 32° 77° (ENE) 743 -3.1 -14.8°
